This is the latest recevied weather packets stored in our database for station/object N4TLC. If no packets are shown the sender has not sent any weather packets the latest 10 day(s).
| Time | Temp. | Humidity | Pressure | Rain* | Wind** | Luminosity | Snow |
|---|---|---|---|---|---|---|---|
| 1777309338 | 18.33° C | 47% | 1025 hPa | 0 mm | - | 171 W/m² | - |
| 1777309037 | 18.33° C | 47% | 1025.1 hPa | 0 mm | - | 95 W/m² | - |
| 1777308734 | 18.33° C | 47% | 1025.1 hPa | 0 mm | - | 87 W/m² | - |
| 1777308434 | 18.33° C | 45% | 1025.4 hPa | 0 mm | - | 87 W/m² | - |
| 1777308130 | 17.78° C | 46% | 1025.4 hPa | 0 mm | - | 413 W/m² | - |
| 1777307827 | 17.78° C | 48% | 1025.3 hPa | 0 mm | - | 1010 W/m² | - |
| 1777307524 | 17.78° C | 47% | 1025.3 hPa | 0 mm | - | 1010 W/m² | - |
| 1777307221 | 17.78° C | 47% | 1025.5 hPa | 0 mm | - | 1004 W/m² | - |
| 1777306918 | 18.33° C | 46% | 1025.5 hPa | 0 mm | - | 999 W/m² | - |
| 1777306615 | 17.78° C | 46% | 1025.6 hPa | 0 mm | - | 990 W/m² | - |
| 1777306310 | 17.78° C | 48% | 1025.7 hPa | 0 mm | - | 984 W/m² | - |
| 1777306005 | 17.78° C | 46% | 1025.6 hPa | 0 mm | - | 972 W/m² | - |
| 1777305703 | 17.22° C | 49% | 1025.4 hPa | 0 mm | - | 964 W/m² | - |
| 1777305399 | 16.67° C | 49% | 1025.6 hPa | 0 mm | - | 956 W/m² | - |
| 1777305093 | 16.67° C | 46% | 1025.7 hPa | 0 mm | - | 945 W/m² | - |
| 1777304788 | 16.67° C | 48% | 1025.7 hPa | 0 mm | - | 935 W/m² | - |
| 1777304486 | 16.67° C | 49% | 1025.7 hPa | 0 mm | - | 927 W/m² | - |
| 1777304183 | 16.11° C | 50% | 1025.7 hPa | 0 mm | - | 922 W/m² | - |
| 1777303880 | 15.56° C | 51% | 1025.7 hPa | 0 mm | - | 836 W/m² | - |
| 1777303577 | 15.56° C | 51% | 1025.6 hPa | 0 mm | - | 141 W/m² | - |
| 1777303275 | 15.56° C | 54% | 1025.8 hPa | 0 mm | - | 153 W/m² | - |
| 1777302972 | 15° C | 52% | 1025.8 hPa | 0 mm | - | 58 W/m² | - |
| 1777302668 | 15° C | 53% | 1025.8 hPa | 0 mm | - | 56 W/m² | - |
| 1777302367 | 15° C | 51% | 1026.1 hPa | 0 mm | - | 55 W/m² | - |
| 1777302065 | 15° C | 51% | 1026.1 hPa | 0 mm | - | 55 W/m² | - |
* Rain latest hour (hover to see other rain measurements)
** Current wind speed in m/s (hover to see current wind gust speed)